Regional Weather Roundup
Issued by NWS Sioux Falls, SD

Home | Current Version | Previous Version | Graphics & Text | Print | Product List | Glossary On
Versions: 1 2 3 4 5 6 7 8 9 10 11 12 13 14 15 16 17 18 19 20 21 22 23 24 25 26 27 28 29 30 31 32 33 34 35 36 37 38 39 40 41 42 43 44 45 46 47 48 49 50
000
ASUS43 KFSD 022202
RWRFSD

WEATHER ROUNDUP FOR SE SOUTH DAKOTA/SW MINNESOTA/NW IOWA
NATIONAL WEATHER SERVICE SIOUX FALLS SD
500 PM CDT THU JUL 02 2015

NOTE: "FAIR" INDICATES FEW OR NO CLOUDS BELOW 12,000 FEET WITH NO
SIGNIFICANT WEATHER AND OR OBSTRUCTIONS TO VISIBILITY.


SDZ038>040-050-052>070-022300-
SOUTHEAST SOUTH DAKOTA

CITY           SKY/WX    TMP DP  RH WIND       PRES   REMARKS
BROOKINGS      CLOUDY    72  48  43 SE8       30.02S
CHAMBERLAIN    PTSUNNY   73  65  75 E3        29.98S
HURON          CLOUDY    72  59  63 SE6       29.97F
MADISON        FAIR      68  54  60 S7        30.01S
MITCHELL       CLOUDY    68  61  78 E13       29.99S
SIOUX FALLS    LGT RAIN  69  58  67 CALM      30.00S
WINNER         FAIR      80  59  48 N15G22    29.98F
YANKTON        CLOUDY    66  61  82 E7        29.97S
$$

MNZ071-072-080-081-089-090-097-098-022300-
SOUTHWEST MINNESOTA

CITY           SKY/WX    TMP DP  RH WIND       PRES   REMARKS
FAIRMONT       PTSUNNY   73  46  38 E6        30.00S
JACKSON        PTSUNNY   72  46  40 SE6       30.02S
LUVERNE        CLOUDY    72  55  56 E7        30.01S
MARSHALL       PTSUNNY   72  48  43 S7        29.99S
MONTEVIDEO     PTSUNNY   77  52  41 SW5       30.00F
PIPESTONE      CLOUDY    70  52  52 S5        30.01S
REDWOOD FALLS  PTSUNNY   76  51  41 S7        29.99F
TRACY          PTSUNNY   73  53  47 E6        30.01S
WINDOM         MOSUNNY   75  43  31 SE5       30.01S
WORTHINGTON    CLOUDY    68  46  45 E5        30.02S
$$

IAZ001>003-012>014-020>022-031-032-NEZ013-014-SDZ071-022300-
NORTHWEST IOWA

CITY           SKY/WX    TMP DP  RH WIND       PRES   REMARKS
DENISON        CLOUDY    68  61  77 E8        29.97S
ESTHERVILLE    PTSUNNY   70  52  52 E6        30.00F
SIOUX CITY     CLOUDY    67  61  81 E10       29.98S
SPENCER        CLOUDY    71  49  45 SE7       30.01S
$$

ABBREVIATIONS USED IN REMARKS
   TC - TEMPERATURE IN CELSIUS
  WCI - WIND CHILL INDEX
   HX - HEAT INDEX
  VSB - VISIBILITY




USA.gov is the U.S. government's official web portal to all federal, state and local government web resources and services.